map of TGD home
TGD - Airport
Location
City:  Podgorica, Montenegro
Near (Alt.):Titograd
Name:Podgorica Airport
Old (Alt.):Golubovci Airport
ICAO:LYPG
IATA:TGD

Details
Type:Airport (Aerodrome, Airfield)
Use:Public/Civil, International (customs port of entry)
Latitude:4221'34"N (42.359392)
Longitude:1915'07"E (19.251894)
Datum:WGS 1984
Elevation:141 ft (43 m)
Variation:4.50E (WMM2015v2 magnetic declination)
0.13 annual change
Runways:2
Longest:8202 × 148 ft (2500 × 45 m), paved

Time
Time Zone:UTC+1 (DST+2)
Local Time:

Weather
METAR:LYPG 041400Z 35015KT 320V090 9999 FEW040 OVC100 15/04 Q1017 NOSIG
TAF:LYPG 041100Z 0412/0512 33018KT 9999 SCT040 SCT090 TX14/0413Z TN06/0506Z
TEMPO 0412/0506 02020G30KT

Related Locations
Nearby:
Farthest:CHT: 11641 mi / 18734 km
Waitangi [Tuuta], CIT, NZ

Find:

   beyond  
but within

Other Information
Maps:
NOTAMs:
Links:
Sources:

  
  • flag of Montenegro
  • flag of Podgorica
  

Sectional Chart

Flight Planning
at skyvector.com

Satellite Image

Google Maps Satellite view

 

Copyright © 2004-2019 Karl L. Swartz. All rights reserved.
The Great Circle Mapper name and logo are trademarks of the Great Circle Mapper.
All other trademarks mentioned herein belong to their respective owners.
Please see credits for attibutions and further copyright information.

  Follow gcmap on Facebook Follow gcmap on Twitter GCmap on LinkedIn

hCard Microformat

Geo Microformat